カタログに戻る

STARLINK-31465

運用中通信VLEO
NORAD 59012·PAYLOAD·🇺🇸 United States

打ち上げ Feb 23, 2024 から Vandenberg Space Force Base

Loading…

次のパス (今後24時間)

TLE

最新Source: CelesTrak SupGP

元期: Sep 15, 2026, 03:08 UTC

1 59012C 24036Q   26258.13104167 -.00005317  00000+0 -17092-3 0  2585
2 59012  53.1564 277.9581 0001239  85.2521 173.9729 15.31715200    14

AllMySatでSTARLINK-31465をリアルタイム追跡

Download on the App Store